Location: Thompson
(55.7500°N, 97.8670°W)
Time: 06:54:45
(UTC-05:00)

Amateur Radio Satellites - All Passes

Search period start: 30 August 2015 06:24
Search period end: 31 August 2015 06:24
Location: Thompson, 55.7500°N, 97.8670°W

Satellite Date Start Highest point End Downlink Frequencies (MHz)
Time Altitude Azimuth
Gurwin Techsat 1B 30 Aug 06:25:44 06:29:17 18° 312° (NW) 06:32:42 435.225
MOZHAYETS 4 30 Aug 06:27:35 06:30:40 17° 274° (W) 06:33:38
CUBESAT XI-V 30 Aug 06:36:24 06:41:01 85° 255° (WSW) 06:45:40 437.345
Cubesat XI-IV 30 Aug 06:39:10 06:42:35 17° 85° (E) 06:46:09 437.490
GONETS M04 30 Aug 06:47:51 06:55:02 27° 313° (NW) 07:02:05
PCSat 30 Aug 06:51:13 06:55:55 28° 345° (NNW) 07:00:36 145.827
ITAMSAT 1 30 Aug 06:55:46 06:58:22 14° 316° (NW) 07:00:48 435.822/435.867
Cosmos 2499 30 Aug 07:00:21 07:08:44 52° 295° (WNW) 07:17:24 435.465 / 435.565
SO-50 30 Aug 07:08:58 07:13:22 30° 2° (N) 07:17:45 436.795
O/OREOS (USA 219) 30 Aug 07:11:15 07:14:00 15° 259° (W) 07:16:36 437.305
STRAND 1 30 Aug 07:16:14 07:21:20 78° 70° (ENE) 07:26:28 437.568
HORYU 2 30 Aug 07:22:55 07:26:28 23° 304° (WNW) 07:29:55 437.375
CUTE-I 30 Aug 07:23:59 07:28:51 35° 95° (E) 07:33:44 437.470
GOMX 1 30 Aug 07:50:46 07:52:38 12° 78° (ENE) 07:54:46 467.674
PRISM 30 Aug 07:53:18 07:57:24 68° 256° (WSW) 08:01:30 437.425
AIST 1 30 Aug 07:59:49 08:01:47 13° 82° (E) 08:03:54
AO-7 30 Aug 08:02:11 08:09:41 39° 313° (NW) 08:17:04 29.400- 29.500
YUBILEINY 30 Aug 08:04:54 08:13:23 47° 63° (ENE) 08:21:52 435.215
JAS-2 30 Aug 08:10:02 08:14:14 16° 329° (NNW) 08:18:06 435.910
DOVE 4 30 Aug 08:13:50 08:15:35 12° 78° (ENE) 08:17:36 437.250
CUBESAT XI-V 30 Aug 08:16:34 08:19:16 15° 276° (W) 08:21:49 437.345
Cubesat XI-IV 30 Aug 08:18:13 08:23:36 83° 106° (ESE) 08:28:57 437.490
AUBIESAT-1 30 Aug 08:27:24 08:29:30 13° 40° (NE) 08:31:41 437.475
Cosmos 2504 30 Aug 08:28:29 08:33:49 18° 35° (NE) 08:39:18 435.465 / 435.565
M-CUBED/EXP-1 PRIME 30 Aug 08:30:12 08:32:51 15° 42° (NE) 08:35:33 437.505
PCSat 30 Aug 08:36:18 08:40:52 26° 10° (N) 08:45:27 145.827
TIGRISAT 30 Aug 08:42:49 08:43:47 11° 44° (NE) 08:44:54 435.000
BRITE-PL 30 Aug 08:48:12 08:53:18 44° 96° (E) 08:58:41 437.365/2234.400
SO-50 30 Aug 08:50:07 08:54:55 45° 26° (NNE) 08:59:41 436.795
GONETS M04 30 Aug 08:52:58 08:56:03 12° 345° (NNW) 08:58:58
STRAND 1 30 Aug 08:57:15 09:01:10 21° 272° (W) 09:05:00 437.568
ANTELSAT 30 Aug 08:57:34 08:59:49 14° 48° (NE) 09:02:13 437.575/2403.000
Cosmos 2499 30 Aug 08:58:23 09:04:32 20° 323° (NW) 09:10:33 435.465 / 435.565
Cosmos 2491 30 Aug 09:02:29 09:09:52 34° 81° (E) 09:17:26 435.465 / 435.565
CUTE-I 30 Aug 09:04:01 09:09:09 50° 296° (WNW) 09:14:17 437.470
CINEMA 3 30 Aug 09:12:11 09:15:17 17° 83° (E) 09:18:31 145.822/145.860
COMPASS 1 30 Aug 09:14:37 09:16:39 13° 84° (E) 09:18:50 437.405
CUSAT 1 30 Aug 09:15:50 09:20:23 18° 44° (NE) 09:25:39 437.405
HO-68 30 Aug 09:22:34 09:28:55 33° 92° (E) 09:35:20 435.675
AAUSAT CUBESAT 2 30 Aug 09:26:16 09:28:36 15° 85° (E) 09:31:04 437.432
GOMX 1 30 Aug 09:26:41 09:31:57 56° 99° (E) 09:37:23 467.674
DANDE 30 Aug 09:30:30 09:34:22 16° 44° (NE) 09:38:57 436.750
PRISM 30 Aug 09:33:03 09:33:43 10° 277° (W) 09:34:10 437.425
AIST 1 30 Aug 09:34:31 09:38:47 87° 102° (ESE) 09:43:05
POLYITAN 1 30 Aug 09:42:59 09:44:48 13° 50° (NE) 09:46:46 437.675
CUTE 1.7 + AOD 2 30 Aug 09:45:31 09:49:27 35° 95° (E) 09:53:22 437.475
POPSAT HIP 1 30 Aug 09:46:12 09:48:07 13° 50° (NE) 09:50:11 437.405
UNISAT 6 30 Aug 09:46:19 09:50:16 28° 59° (ENE) 09:54:17 437.425
DUCHIFAT 1 30 Aug 09:48:18 09:50:14 13° 50° (NE) 09:52:17 145.980
DOVE 4 30 Aug 09:49:19 09:54:32 57° 99° (E) 09:59:48 437.250
AO-7 30 Aug 09:55:04 10:00:25 19° 339° (NNW) 10:05:37 29.400- 29.500
AUBIESAT-1 30 Aug 09:58:48 10:03:20 46° 59° (ENE) 10:07:44 437.475
Cubesat XI-IV 30 Aug 09:58:58 10:03:13 24° 307° (NW) 10:07:22 437.490
CANX-2 30 Aug 09:59:08 10:03:18 51° 99° (E) 10:07:26 2200.000
QB50P2 30 Aug 10:01:41 10:04:25 17° 54° (NE) 10:07:15 145.880/145.840
YUBILEINY 30 Aug 10:01:58 10:10:37 59° 268° (W) 10:19:09 435.215
M-CUBED/EXP-1 PRIME 30 Aug 10:02:08 10:06:50 55° 61° (ENE) 10:11:24 437.505
NANOSAT C BR1 30 Aug 10:04:10 10:06:53 17° 54° (NE) 10:09:43 145.865
DELFI C3 30 Aug 10:04:17 10:05:22 11° 83° (E) 10:06:38 145.870
BUGSAT 1 30 Aug 10:04:22 10:05:52 12° 49° (NE) 10:07:31 437.445
TIGRISAT 30 Aug 10:15:02 10:19:27 42° 65° (ENE) 10:23:56 435.000
QB50P1 30 Aug 10:16:29 10:19:39 21° 57° (ENE) 10:22:55 145.935-145.965
Oscar 11 30 Aug 10:20:00 10:23:27 23° 90° (E) 10:26:57 145.826/435.025
PCSat 30 Aug 10:20:10 10:25:27 49° 35° (NE) 10:30:45 145.827
Cosmos 2504 30 Aug 10:20:33 10:28:48 46° 63° (ENE) 10:36:46 435.465 / 435.565
SEEDS 30 Aug 10:23:53 10:28:05 64° 102° (ESE) 10:32:14 437.485
BRITE-PL 30 Aug 10:26:51 10:31:50 42° 296° (WNW) 10:37:03 437.365/2234.400
SO-50 30 Aug 10:30:46 10:35:43 64° 228° (SW) 10:40:34 436.795
ANTELSAT 30 Aug 10:31:08 10:35:44 57° 68° (ENE) 10:40:24 437.575/2403.000
CUTE-I 30 Aug 10:45:27 10:48:12 14° 317° (NW) 10:50:49 437.470
CINEMA 3 30 Aug 10:48:14 10:53:19 83° 104° (ESE) 10:58:20 145.822/145.860
COMPASS 1 30 Aug 10:48:50 10:53:03 87° 108° (ESE) 10:57:12 437.405
CUBEBUG 2 30 Aug 10:50:43 10:55:21 48° 98° (E) 10:59:52 437.445
GONETS M04 30 Aug 10:54:45 10:58:08 13° 19° (NNE) 11:01:43
Cosmos 2491 30 Aug 10:57:22 11:06:07 77° 286° (WNW) 11:14:53 435.465 / 435.565
CUSAT 1 30 Aug 10:57:40 11:04:33 52° 66° (ENE) 11:12:30 437.405
ZACube-1 30 Aug 10:58:45 11:02:58 36° 95° (E) 11:07:08 437.345
Cosmos 2499 30 Aug 11:00:11 11:02:18 11° 355° (N) 11:04:21 435.465 / 435.565
AAUSAT CUBESAT 2 30 Aug 11:00:39 11:04:50 84° 287° (WNW) 11:08:59 437.432
UWE-3 30 Aug 11:01:29 11:06:01 47° 98° (E) 11:10:27 435.000/436.395/437.385
FUNcube-1 30 Aug 11:04:57 11:09:14 39° 96° (E) 11:13:27 145.935
GOMX 1 30 Aug 11:05:07 11:09:53 34° 299° (WNW) 11:14:45 467.674
HO-68 30 Aug 11:10:07 11:17:20 74° 294° (WNW) 11:24:31 435.675
DANDE 30 Aug 11:12:39 11:19:05 48° 65° (ENE) 11:26:55 436.750
AIST 1 30 Aug 11:14:21 11:17:08 16° 303° (WNW) 11:19:48
POLYITAN 1 30 Aug 11:15:42 11:19:55 60° 69° (ENE) 11:24:12 437.675
POPSAT HIP 1 30 Aug 11:19:00 11:23:13 62° 70° (ENE) 11:27:29 437.405
DUCHIFAT 1 30 Aug 11:21:05 11:25:16 63° 70° (ENE) 11:29:31 145.980
CUTE 1.7 + AOD 2 30 Aug 11:21:28 11:25:23 35° 296° (WNW) 11:29:14 437.475
UNISAT 6 30 Aug 11:22:07 11:26:47 59° 259° (W) 11:31:29 437.425
DOVE 4 30 Aug 11:27:22 11:32:05 33° 299° (WNW) 11:36:46 437.250
ISS 30 Aug 11:27:53 11:30:14 19° 153° (SSE) 11:32:39 145.825
AUBIESAT-1 30 Aug 11:33:44 11:38:06 35° 258° (WSW) 11:42:21 437.475
CANX-2 30 Aug 11:35:26 11:39:01 26° 299° (WNW) 11:42:32 2200.000
QB50P2 30 Aug 11:35:28 11:39:45 88° 75° (ENE) 11:44:05 145.880/145.840
JAS-2 30 Aug 11:35:32 11:37:59 12° 21° (NNE) 11:40:35 435.910
BUGSAT 1 30 Aug 11:36:32 11:40:33 59° 69° (ENE) 11:44:39 437.445
DELFI C3 30 Aug 11:37:12 11:41:14 76° 103° (ESE) 11:45:13 145.870
M-CUBED/EXP-1 PRIME 30 Aug 11:37:32 11:41:48 30° 260° (W) 11:45:56 437.505
NANOSAT C BR1 30 Aug 11:37:53 11:42:09 89° 78° (ENE) 11:46:28 145.865
ESTCUBE 1 30 Aug 11:41:12 11:43:38 15° 84° (E) 11:46:12 437.505/2401.250
DX 1 30 Aug 11:45:03 11:48:43 26° 93° (E) 11:52:25 434.975-435.025
AO-7 30 Aug 11:45:40 11:50:09 16° 7° (N) 11:54:40 29.400- 29.500
QB50P1 30 Aug 11:50:52 11:55:07 71° 257° (WSW) 11:59:25 145.935-145.965
TIGRISAT 30 Aug 11:51:56 11:56:17 36° 265° (W) 12:00:38 435.000
Oscar 11 30 Aug 11:55:42 11:59:59 56° 291° (WNW) 12:04:12 145.826/435.025
HUMSAT D 30 Aug 11:58:12 12:02:25 53° 100° (E) 12:06:35 437.325/437.525
AISAT 30 Aug 12:00:04 12:03:48 26° 92° (E) 12:07:36 437.250
SEEDS 30 Aug 12:00:16 12:03:32 22° 302° (WNW) 12:06:43 437.485
UKube-1 30 Aug 12:00:17 12:04:11 31° 95° (E) 12:08:05 .
YUBILEINY 30 Aug 12:00:23 12:05:39 17° 292° (WNW) 12:10:34 435.215
PCSat 30 Aug 12:03:43 12:09:00 51° 237° (WSW) 12:14:14 145.827
CUBEBUG 1 30 Aug 12:06:17 12:09:28 20° 88° (E) 12:12:46 437.445
BRITE-PL 30 Aug 12:07:13 12:09:16 12° 316° (NW) 12:11:09 437.365/2234.400
ANTELSAT 30 Aug 12:08:50 12:12:50 26° 269° (W) 12:16:48 437.575/2403.000
SO-50 30 Aug 12:12:37 12:15:27 15° 248° (WSW) 12:18:06 436.795
Cosmos 2504 30 Aug 12:12:58 12:21:25 60° 268° (W) 12:29:27 435.465 / 435.565
COMPASS 1 30 Aug 12:25:26 12:28:11 17° 305° (NW) 12:30:50 437.405
CINEMA 3 30 Aug 12:26:04 12:30:00 23° 305° (NW) 12:33:49 145.822/145.860
Oscar 19 30 Aug 12:27:34 12:31:49 27° 56° (NE) 12:36:10 437.125/150
CUBEBUG 2 30 Aug 12:27:37 12:31:54 33° 298° (WNW) 12:36:03 437.445
50 SAT 30 Aug 12:28:07 12:31:56 48° 99° (E) 12:35:42 437.505
VELOX 1 30 Aug 12:28:33 12:32:47 42° 98° (E) 12:37:03 145.980
ZACube-1 30 Aug 12:35:06 12:39:22 39° 296° (WNW) 12:43:33 437.345
AAUSAT CUBESAT 2 30 Aug 12:37:19 12:39:52 16° 306° (NW) 12:42:18 437.432
UWE-3 30 Aug 12:38:14 12:42:24 32° 298° (WNW) 12:46:27 435.000/436.395/437.385
CUSAT 1 30 Aug 12:40:17 12:47:14 53° 265° (W) 12:55:05 437.405
FUNcube-1 30 Aug 12:41:21 12:45:32 36° 297° (WNW) 12:49:37 145.935
GONETS M04 30 Aug 12:51:35 12:58:58 29° 50° (NE) 13:06:30
POLYITAN 1 30 Aug 12:52:48 12:56:11 22° 270° (W) 12:59:33 437.675
Cosmos 2499 30 Aug 12:55:44 13:00:24 15° 27° (NNE) 13:05:14 435.465 / 435.565
DANDE 30 Aug 12:55:45 13:02:25 55° 263° (W) 13:10:22 436.750
Gurwin Techsat 1B 30 Aug 12:56:00 12:59:41 20° 50° (NE) 13:03:28 435.225
POPSAT HIP 1 30 Aug 12:56:12 12:59:30 21° 270° (W) 13:02:45 437.405
Cosmos 2491 30 Aug 12:57:31 13:04:42 27° 312° (NW) 13:11:46 435.465 / 435.565
DUCHIFAT 1 30 Aug 12:58:14 13:01:29 21° 271° (W) 13:04:42 145.980
HO-68 30 Aug 12:58:26 13:04:09 26° 317° (NW) 13:09:45 435.675
ISS 30 Aug 13:03:04 13:06:07 37° 172° (S) 13:09:10 145.825
UNISAT 6 30 Aug 13:03:29 13:04:39 11° 281° (W) 13:05:36 437.425
DELFI C3 30 Aug 13:13:04 13:15:51 18° 303° (WNW) 13:18:33 145.870
BUGSAT 1 30 Aug 13:13:14 13:16:23 21° 270° (W) 13:19:32 437.445
QB50P2 30 Aug 13:13:45 13:16:19 15° 275° (W) 13:18:46 145.880/145.840
JAS-2 30 Aug 13:14:34 13:20:36 26° 45° (NE) 13:26:42 435.910
NANOSAT C BR1 30 Aug 13:16:09 13:18:40 15° 275° (W) 13:21:03 145.865
ESTCUBE 1 30 Aug 13:16:44 13:21:16 85° 105° (ESE) 13:25:47 437.505/2401.250
TISAT 1 30 Aug 13:19:07 13:22:18 20° 89° (E) 13:25:33 437.305
DX 1 30 Aug 13:20:57 13:25:14 52° 293° (WNW) 13:29:30 434.975-435.025
ITAMSAT 1 30 Aug 13:23:00 13:27:05 24° 54° (NE) 13:31:14 435.822/435.867
QB50P1 30 Aug 13:30:23 13:31:53 11° 278° (W) 13:33:10 145.935-145.965
Oscar 11 30 Aug 13:33:34 13:35:20 12° 311° (NW) 13:36:58 145.826/435.025
AO-7 30 Aug 13:33:51 13:40:16 26° 35° (NE) 13:46:49 29.400- 29.500
HUMSAT D 30 Aug 13:34:19 13:37:54 26° 300° (WNW) 13:41:24 437.325/437.525
AISAT 30 Aug 13:36:17 13:40:40 54° 292° (WNW) 13:45:03 437.250
UKube-1 30 Aug 13:36:18 13:40:26 42° 295° (WNW) 13:44:32 .
CUBEBUG 1 30 Aug 13:41:55 13:46:19 70° 289° (WNW) 13:50:43 437.445
SPROUT 30 Aug 13:43:46 13:48:02 50° 100° (E) 13:52:16 437.525
SWISSCUBE 30 Aug 13:49:29 13:50:04 10° 80° (E) 13:50:54 437.505
PCSat 30 Aug 13:49:38 13:51:21 11° 257° (WSW) 13:52:47 145.827
50 SAT 30 Aug 14:03:01 14:06:14 24° 299° (WNW) 14:09:23 437.505
VELOX 1 30 Aug 14:05:15 14:09:17 34° 298° (WNW) 14:13:18 145.980
Oscar 19 30 Aug 14:05:38 14:10:49 71° 257° (WSW) 14:16:03 437.125/150
Cosmos 2504 30 Aug 14:06:39 14:11:56 18° 291° (WNW) 14:16:46 435.465 / 435.565
CUSAT 1 30 Aug 14:24:37 14:28:39 15° 284° (WNW) 14:32:34 437.405
ITUPSAT 1 30 Aug 14:25:05 14:28:24 19° 87° (E) 14:31:50 437.325
Gurwin Techsat 1B 30 Aug 14:33:39 14:38:58 77° 71° (ENE) 14:44:19 435.225
ISS 30 Aug 14:39:09 14:42:09 34° 192° (SSW) 14:45:07 145.825
DANDE 30 Aug 14:40:33 14:44:37 16° 281° (W) 14:48:40 436.750
HO-68 30 Aug 14:46:59 14:49:35 12° 342° (NNW) 14:52:03 435.675
GONETS M04 30 Aug 14:48:29 14:57:20 84° 77° (ENE) 15:06:12
Cosmos 2499 30 Aug 14:48:54 14:56:56 37° 56° (NE) 15:04:43 435.465 / 435.565
TISAT 1 30 Aug 14:54:14 14:58:29 64° 290° (WNW) 15:02:43 437.305
ESTCUBE 1 30 Aug 14:54:24 14:57:39 19° 305° (NW) 15:00:48 437.505/2401.250
JAS-2 30 Aug 14:56:49 15:04:32 69° 67° (ENE) 15:12:19 435.910
BEESAT 30 Aug 14:58:47 15:03:08 34° 95° (E) 15:07:29 436.000
DX 1 30 Aug 14:58:58 15:00:37 12° 313° (NW) 15:02:08 434.975-435.025
ITAMSAT 1 30 Aug 15:00:57 15:06:09 80° 256° (WSW) 15:11:22 435.822/435.867
Cosmos 2491 30 Aug 15:02:39 15:05:43 12° 344° (NNW) 15:08:37 435.465 / 435.565
AISAT 30 Aug 15:14:28 15:16:23 12° 312° (NW) 15:18:10 437.250
HORYU 2 30 Aug 15:15:23 15:19:13 29° 60° (ENE) 15:23:07 437.375
CUBEBUG 1 30 Aug 15:19:30 15:21:59 15° 309° (NW) 15:24:22 437.445
SPROUT 30 Aug 15:20:11 15:23:54 28° 299° (WNW) 15:27:34 437.525
AO-7 30 Aug 15:23:36 15:31:47 64° 59° (ENE) 15:40:00 29.400- 29.500
SWISSCUBE 30 Aug 15:24:21 15:29:04 58° 101° (ESE) 15:33:47 437.505
Oscar 19 30 Aug 15:48:21 15:51:13 14° 278° (W) 15:53:54 437.125/150
BEESAT 3 30 Aug 15:52:51 15:55:16 16° 116° (ESE) 15:57:48 437.485
RS-15 30 Aug 15:53:55 16:01:09 22° 99° (E) 16:09:03 29.354- 29.394
ITUPSAT 1 30 Aug 16:02:08 16:06:56 80° 288° (WNW) 16:11:43 437.325
BEESAT 2 30 Aug 16:02:43 16:05:04 15° 116° (ESE) 16:07:33 435.950
Gurwin Techsat 1B 30 Aug 16:15:25 16:19:36 23° 272° (W) 16:23:42 435.225
ISS 30 Aug 16:15:57 16:17:55 15° 211° (SSW) 16:19:50 145.825
STARS 30 Aug 16:19:53 16:23:36 25° 92° (E) 16:27:20 437.465
Cubesat XI-IV 30 Aug 16:31:19 16:34:14 15° 45° (NE) 16:37:19 437.490
TISAT 1 30 Aug 16:31:23 16:33:30 13° 310° (NW) 16:35:31 437.305
HO-68 30 Aug 16:32:46 16:34:14 11° 10° (N) 16:35:46 435.675
KKS-1 30 Aug 16:34:22 16:38:46 49° 100° (E) 16:43:09 437.445
BEESAT 30 Aug 16:36:34 16:41:07 44° 295° (WNW) 16:45:37 436.000
MOZHAYETS 4 30 Aug 16:37:14 16:39:12 13° 82° (E) 16:41:21
Cosmos 2499 30 Aug 16:42:12 16:51:05 78° 262° (W) 16:59:26 435.465 / 435.565
JAS-2 30 Aug 16:42:50 16:50:04 39° 269° (W) 16:57:18 435.910
ITAMSAT 1 30 Aug 16:43:21 16:46:35 16° 276° (W) 16:49:40 435.822/435.867
GONETS M04 30 Aug 16:45:59 16:53:23 31° 281° (W) 17:00:38
HORYU 2 30 Aug 16:51:15 16:55:40 52° 259° (W) 17:00:06 437.375
SWISSCUBE 30 Aug 17:02:36 17:06:41 28° 302° (WNW) 17:10:43 437.505
Cosmos 2491 30 Aug 17:04:34 17:07:49 12° 18° (NNE) 17:11:17 435.465 / 435.565
CUTE-I 30 Aug 17:14:51 17:19:10 26° 55° (NE) 17:23:34 437.470
AO-7 30 Aug 17:17:05 17:25:02 45° 262° (W) 17:32:56 29.400- 29.500
BEESAT 3 30 Aug 17:28:32 17:32:37 79° 134° (SE) 17:36:43 437.485
BEESAT 2 30 Aug 17:38:24 17:42:30 77° 136° (SE) 17:46:39 435.950
ITUPSAT 1 30 Aug 17:40:57 17:44:12 18° 309° (NW) 17:47:21 437.325
STARS 30 Aug 17:55:57 18:00:20 54° 292° (WNW) 18:04:41 437.465
RS-15 30 Aug 18:00:34 18:11:20 65° 125° (SE) 18:22:39 29.354- 29.394
AIST 2 30 Aug 18:05:00 18:08:59 40° 127° (SE) 18:13:00 435.215
Cubesat XI-IV 30 Aug 18:08:13 18:13:24 56° 66° (ENE) 18:18:37 437.490
KKS-1 30 Aug 18:11:18 18:15:15 30° 300° (WNW) 18:19:08 437.445
MOZHAYETS 4 30 Aug 18:12:45 18:17:21 74° 103° (ESE) 18:21:55
HO-68 30 Aug 18:14:31 18:19:20 20° 36° (NE) 18:24:19 435.675
BEESAT 30 Aug 18:16:22 18:17:55 11° 316° (NW) 18:19:19 436.000
CUBESAT XI-V 30 Aug 18:26:28 18:29:08 15° 84° (E) 18:31:59 437.345
BRITE-PL 30 Aug 18:30:16 18:33:32 20° 53° (NE) 18:37:03 437.365/2234.400
Cosmos 2499 30 Aug 18:36:20 18:42:58 24° 286° (WNW) 18:49:07 435.465 / 435.565
CUTE-I 30 Aug 18:53:32 18:58:51 75° 255° (WSW) 19:04:13 437.470
Cosmos 2491 30 Aug 19:01:23 19:08:41 29° 50° (NE) 19:16:08 435.465 / 435.565
GOMX 1 30 Aug 19:05:42 19:09:27 25° 56° (NE) 19:13:29 467.674
BEESAT 3 30 Aug 19:07:10 19:10:54 32° 337° (NNW) 19:14:37 437.485
CUTE 1.7 + AOD 2 30 Aug 19:12:17 19:14:19 14° 52° (NE) 19:16:29 437.475
BEESAT 2 30 Aug 19:17:07 19:20:54 33° 337° (NNW) 19:24:40 435.950
AO-7 30 Aug 19:18:11 19:20:34 11° 288° (WNW) 19:22:22 29.400- 29.500
STRAND 1 30 Aug 19:20:13 19:23:06 15° 83° (E) 19:26:09 437.568
CANX-2 30 Aug 19:25:06 19:27:56 18° 55° (NE) 19:30:51 2200.000
DOVE 4 30 Aug 19:25:55 19:29:44 25° 56° (NE) 19:33:48 437.250
PRISM 30 Aug 19:30:25 19:30:59 10° 83° (E) 19:31:45 437.425
AIST 1 30 Aug 19:33:42 19:37:55 50° 72° (ENE) 19:42:09
STARS 30 Aug 19:34:00 19:35:55 12° 312° (NW) 19:37:42 437.465
AIST 2 30 Aug 19:43:22 19:47:31 50° 327° (NNW) 19:51:42 435.215
SEEDS 30 Aug 19:48:38 19:51:46 21° 57° (ENE) 19:54:57 437.485
Cubesat XI-IV 30 Aug 19:49:04 19:53:50 32° 267° (W) 19:58:33 437.490
Oscar 11 30 Aug 19:50:05 19:50:33 10° 47° (NE) 19:51:11 145.826/435.025
MOZHAYETS 4 30 Aug 19:50:37 19:54:10 22° 304° (WNW) 19:57:37
O/OREOS (USA 219) 30 Aug 19:50:54 19:54:37 26° 107° (ESE) 19:58:27 437.305
HO-68 30 Aug 19:58:50 20:05:44 54° 60° (ENE) 20:12:43 435.675
CUBESAT XI-V 30 Aug 20:02:41 20:07:21 87° 105° (ESE) 20:12:01 437.345
BRITE-PL 30 Aug 20:06:58 20:11:26 87° 251° (WSW) 20:16:20 437.365/2234.400
COMPASS 1 30 Aug 20:12:22 20:15:49 25° 61° (ENE) 20:19:19 437.405
RS-15 30 Aug 20:12:51 20:23:59 67° 334° (NNW) 20:35:43 29.354- 29.394
CINEMA 3 30 Aug 20:20:40 20:24:55 33° 61° (ENE) 20:29:21 145.822/145.860
CUBEBUG 2 30 Aug 20:21:04 20:24:24 20° 54° (NE) 20:27:53 437.445
AAUSAT CUBESAT 2 30 Aug 20:23:38 20:27:11 27° 62° (ENE) 20:30:46 437.432
ZACube-1 30 Aug 20:27:48 20:30:24 15° 51° (NE) 20:33:09 437.345
UWE-3 30 Aug 20:30:53 20:34:10 20° 54° (NE) 20:37:32 435.000/436.395/437.385
FUNcube-1 30 Aug 20:33:34 20:36:22 16° 52° (NE) 20:39:16 145.935
CUTE-I 30 Aug 20:36:45 20:39:57 16° 277° (W) 20:42:59 437.470
GOMX 1 30 Aug 20:42:32 20:47:09 70° 258° (WSW) 20:52:09 467.674
CUTE 1.7 + AOD 2 30 Aug 20:45:15 20:49:31 66° 71° (ENE) 20:53:47 437.475
BEESAT 3 30 Aug 20:46:31 20:49:48 23° 1° (N) 20:53:04 437.485
BEESAT 2 30 Aug 20:56:35 20:59:55 23° 0° (N) 21:03:13 435.950
DELFI C3 30 Aug 20:57:32 21:00:32 21° 58° (ENE) 21:03:36 145.870
STRAND 1 30 Aug 20:58:07 21:03:15 77° 105° (ESE) 21:08:23 437.568
Cosmos 2491 30 Aug 20:58:17 21:07:06 83° 77° (ENE) 21:15:54 435.465 / 435.565
CANX-2 30 Aug 20:59:01 21:03:20 87° 255° (WSW) 21:07:40 2200.000
DOVE 4 30 Aug 21:02:20 21:07:02 72° 257° (WSW) 21:12:05 437.250
PRISM 30 Aug 21:03:11 21:07:17 68° 103° (ESE) 21:11:23 437.425
AIST 1 30 Aug 21:11:49 21:15:20 24° 272° (W) 21:18:47
DX 1 30 Aug 21:14:34 21:16:22 13° 48° (NE) 21:18:17 434.975-435.025
YUBILEINY 30 Aug 21:16:05 21:23:53 39° 84° (E) 21:31:52 435.215
Oscar 11 30 Aug 21:21:38 21:25:47 45° 67° (ENE) 21:29:58 145.826/435.025
HUMSAT D 30 Aug 21:22:53 21:25:52 19° 56° (NE) 21:28:55 437.325/437.525
SEEDS 30 Aug 21:22:54 21:27:09 71° 257° (WSW) 21:31:25 437.485
AIST 2 30 Aug 21:23:19 21:26:54 25° 351° (N) 21:30:27 435.215
UKube-1 30 Aug 21:28:35 21:30:52 14° 50° (NE) 21:33:17 .
O/OREOS (USA 219) 30 Aug 21:29:14 21:33:46 61° 307° (NW) 21:38:20 437.305
AISAT 30 Aug 21:31:28 21:33:19 13° 48° (NE) 21:35:18 437.250
CUBESAT XI-V 30 Aug 21:40:56 21:44:17 20° 305° (NW) 21:47:33 437.345
50 SAT 30 Aug 21:46:18 21:48:21 14° 54° (NE) 21:50:29 437.505
HO-68 30 Aug 21:46:47 21:53:40 47° 262° (W) 22:00:35 435.675
COMPASS 1 30 Aug 21:47:07 21:51:15 52° 260° (W) 21:55:24 437.405
BRITE-PL 30 Aug 21:48:12 21:50:56 15° 278° (W) 21:53:37 437.365/2234.400
CUBEBUG 2 30 Aug 21:55:49 22:00:31 89° 258° (WSW) 22:05:20 437.445
CINEMA 3 30 Aug 21:57:18 22:01:57 50° 262° (W) 22:06:47 145.822/145.860
AAUSAT CUBESAT 2 30 Aug 21:58:32 22:02:36 47° 261° (W) 22:06:41 437.432
VELOX 1 30 Aug 21:58:38 22:01:37 18° 54° (NE) 22:04:43 145.980
ZACube-1 30 Aug 22:01:28 22:06:02 70° 71° (ENE) 22:10:40 437.345
UWE-3 30 Aug 22:05:28 22:10:07 90° 294° (WNW) 22:14:51 435.000/436.395/437.385
FUNcube-1 30 Aug 22:07:26 22:12:00 76° 72° (ENE) 22:16:38 145.935
CUTE 1.7 + AOD 2 30 Aug 22:22:40 22:25:53 20° 272° (W) 22:29:01 437.475
GOMX 1 30 Aug 22:24:14 22:26:26 13° 281° (W) 22:28:29 467.674
BEESAT 3 30 Aug 22:24:56 22:28:41 34° 24° (NNE) 22:32:25 437.485
RS-15 30 Aug 22:27:13 22:38:23 56° 6° (N) 22:50:07 29.354- 29.394
DELFI C3 30 Aug 22:31:12 22:35:15 65° 258° (WSW) 22:39:17 145.870
BEESAT 2 30 Aug 22:35:09 22:38:56 33° 23° (NNE) 22:42:40 435.950
CANX-2 30 Aug 22:37:34 22:39:58 14° 276° (W) 22:42:14 2200.000
STRAND 1 30 Aug 22:37:55 22:42:03 25° 305° (NW) 22:46:05 437.568
PRISM 30 Aug 22:39:16 22:42:21 20° 303° (WNW) 22:45:22 437.425
DOVE 4 30 Aug 22:43:26 22:45:53 13° 280° (W) 22:48:12 437.250
ESTCUBE 1 30 Aug 22:47:29 22:51:28 33° 62° (ENE) 22:55:30 437.505/2401.250
DX 1 30 Aug 22:47:33 22:51:48 57° 68° (ENE) 22:56:06 434.975-435.025
Cosmos 2491 30 Aug 22:55:49 23:03:11 31° 280° (W) 23:10:24 435.465 / 435.565
HUMSAT D 30 Aug 22:56:44 23:01:05 84° 255° (WSW) 23:05:28 437.325/437.525
Oscar 11 30 Aug 22:58:18 23:02:09 29° 267° (W) 23:05:57 145.826/435.025
Cosmos 2504 30 Aug 23:01:11 23:07:43 27° 77° (ENE) 23:14:39 435.465 / 435.565
UKube-1 30 Aug 23:02:00 23:06:18 69° 71° (ENE) 23:10:39 .
SEEDS 30 Aug 23:02:21 23:03:49 11° 278° (W) 23:05:05 437.485
AIST 2 30 Aug 23:02:52 23:06:33 27° 14° (NNE) 23:10:11 435.215
AISAT 30 Aug 23:04:43 23:09:03 56° 68° (ENE) 23:13:25 437.250
UNISAT 6 30 Aug 23:07:12 23:10:32 20° 87° (E) 23:13:54 437.425
CUBEBUG 1 30 Aug 23:09:18 23:13:21 40° 65° (ENE) 23:17:27 437.445
SPROUT 30 Aug 23:10:42 23:13:40 19° 55° (NE) 23:16:44 437.525
O/OREOS (USA 219) 30 Aug 23:10:52 23:14:09 19° 331° (NNW) 23:17:23 437.305
YUBILEINY 30 Aug 23:11:31 23:20:19 69° 288° (WNW) 23:29:10 435.215
M-CUBED/EXP-1 PRIME 30 Aug 23:12:52 23:14:14 12° 88° (E) 23:15:44 437.505
50 SAT 30 Aug 23:18:17 23:22:15 79° 74° (ENE) 23:26:15 437.505
QB50P1 30 Aug 23:29:55 23:31:44 13° 83° (E) 23:33:44 145.935-145.965
VELOX 1 30 Aug 23:33:12 23:37:38 89° 245° (WSW) 23:42:06 145.980
CUBEBUG 2 30 Aug 23:34:53 23:37:58 17° 276° (W) 23:40:56 437.445
TIGRISAT 30 Aug 23:35:49 23:39:58 31° 94° (E) 23:44:03 435.000
ZACube-1 30 Aug 23:39:20 23:42:52 21° 272° (W) 23:46:21 437.345
HO-68 30 Aug 23:41:22 23:43:34 11° 286° (WNW) 23:45:21 435.675
UWE-3 30 Aug 23:44:21 23:47:22 17° 276° (W) 23:50:17 435.000/436.395/437.385
FUNcube-1 30 Aug 23:45:31 23:48:53 19° 273° (W) 23:52:10 145.935
ANTELSAT 30 Aug 23:52:16 23:56:44 44° 98° (E) 00:01:05 437.575/2403.000
BEESAT 3 31 Aug 00:02:51 00:06:55 72° 226° (SW) 00:10:55 437.485
ITUPSAT 1 31 Aug 00:04:35 00:06:26 12° 45° (NE) 00:08:25 437.325
BEESAT 2 31 Aug 00:13:11 00:17:17 74° 226° (SW) 00:21:20 435.950
CUSAT 1 31 Aug 00:14:28 00:17:52 22° 82° (E) 00:22:09 437.405
TISAT 1 31 Aug 00:18:00 00:21:56 39° 65° (ENE) 00:25:55 437.305
ESTCUBE 1 31 Aug 00:23:57 00:28:16 43° 262° (W) 00:32:34 437.505/2401.250
DX 1 31 Aug 00:24:52 00:28:24 23° 269° (W) 00:31:53 434.975-435.025
POLYITAN 1 31 Aug 00:29:19 00:33:25 39° 97° (E) 00:37:29 437.675
POPSAT HIP 1 31 Aug 00:32:22 00:36:28 41° 97° (E) 00:40:34 437.405
DUCHIFAT 1 31 Aug 00:33:52 00:37:57 41° 98° (E) 00:42:01 145.980
DANDE 31 Aug 00:34:48 00:37:38 19° 81° (E) 00:41:10 436.750
HUMSAT D 31 Aug 00:35:11 00:37:34 14° 276° (W) 00:39:47 437.325/437.525
BEESAT 31 Aug 00:36:38 00:39:58 20° 53° (NE) 00:43:24 436.000
UKube-1 31 Aug 00:39:45 00:42:55 19° 271° (W) 00:46:01 .
RS-15 31 Aug 00:40:47 00:52:27 80° 37° (NE) 01:04:38 29.354- 29.394
AUBIESAT-1 31 Aug 00:41:30 00:45:39 60° 108° (ESE) 00:49:27 437.475
AIST 2 31 Aug 00:41:32 00:45:46 65° 37° (NE) 00:49:55 435.215
AISAT 31 Aug 00:42:18 00:45:57 24° 269° (W) 00:49:35 437.250
UNISAT 6 31 Aug 00:43:12 00:47:53 74° 289° (WNW) 00:52:25 437.425
SPROUT 31 Aug 00:44:56 00:49:15 83° 255° (WSW) 00:53:37 437.525
M-CUBED/EXP-1 PRIME 31 Aug 00:45:41 00:49:58 75° 110° (ESE) 00:53:52 437.505
CUBEBUG 1 31 Aug 00:45:51 00:49:48 33° 265° (W) 00:53:44 437.445
BUGSAT 1 31 Aug 00:46:27 00:50:24 36° 96° (E) 00:54:22 437.445
QB50P2 31 Aug 00:48:59 00:53:16 59° 102° (ESE) 00:57:31 145.880/145.840
Cosmos 2504 31 Aug 00:50:38 00:58:56 87° 101° (E) 01:07:38 435.465 / 435.565
NANOSAT C BR1 31 Aug 00:50:54 00:55:10 59° 101° (ESE) 00:59:25 145.865
O/OREOS (USA 219) 31 Aug 00:54:15 00:55:27 11° 356° (N) 00:56:38 437.305
50 SAT 31 Aug 00:54:56 00:57:20 15° 273° (W) 00:59:38 437.505
SWISSCUBE 31 Aug 01:01:27 01:05:32 29° 59° (ENE) 01:09:39 437.505
QB50P1 31 Aug 01:04:05 01:08:25 78° 104° (ESE) 01:12:44 145.935-145.965
YUBILEINY 31 Aug 01:12:08 01:19:09 25° 315° (NW) 01:26:01 435.215
VELOX 1 31 Aug 01:12:18 01:14:55 15° 275° (W) 01:17:24 145.980
TIGRISAT 31 Aug 01:12:24 01:16:53 46° 294° (WNW) 01:21:13 435.000
ANTELSAT 31 Aug 01:29:12 01:33:25 34° 298° (WNW) 01:37:31 437.575/2403.000
ITUPSAT 1 31 Aug 01:38:46 01:43:22 49° 65° (ENE) 01:47:59 437.325
BEESAT 3 31 Aug 01:42:02 01:44:11 14° 245° (WSW) 01:46:13 437.485
STARS 31 Aug 01:50:32 01:52:21 13° 48° (NE) 01:54:18 437.465
BEESAT 2 31 Aug 01:52:24 01:54:42 14° 245° (WSW) 01:56:51 435.950
TISAT 1 31 Aug 01:53:57 01:57:46 32° 265° (W) 02:01:37 437.305
CUSAT 1 31 Aug 01:55:19 01:59:38 66° 289° (WNW) 02:05:31 437.405
KKS-1 31 Aug 02:04:36 02:07:57 21° 56° (NE) 02:11:24 437.445
POLYITAN 1 31 Aug 02:05:20 02:09:16 34° 297° (WNW) 02:13:09 437.675
GONETS M04 31 Aug 02:05:41 02:11:35 22° 73° (ENE) 02:17:47
POPSAT HIP 1 31 Aug 02:08:23 02:12:16 32° 297° (WNW) 02:16:06 437.405
DUCHIFAT 1 31 Aug 02:09:49 02:13:41 32° 297° (WNW) 02:17:30 145.980
Oscar 19 31 Aug 02:09:51 02:14:04 25° 90° (E) 02:18:20 437.125/150
BEESAT 31 Aug 02:12:27 02:17:15 88° 73° (ENE) 02:22:04 436.000
DANDE 31 Aug 02:16:06 02:19:58 63° 290° (WNW) 02:25:14 436.750
AUBIESAT-1 31 Aug 02:16:36 02:20:02 24° 310° (NW) 02:23:14 437.475
AIST 2 31 Aug 02:20:26 02:24:04 28° 238° (WSW) 02:27:37 435.215
M-CUBED/EXP-1 PRIME 31 Aug 02:21:00 02:24:18 21° 312° (NW) 02:27:20 437.505
UNISAT 6 31 Aug 02:21:01 02:23:57 16° 309° (NW) 02:26:43 437.425
BUGSAT 1 31 Aug 02:21:58 02:25:52 35° 296° (WNW) 02:29:45 437.445
SPROUT 31 Aug 02:23:51 02:26:06 14° 276° (W) 02:28:12 437.525
QB50P2 31 Aug 02:25:21 02:28:52 24° 301° (WNW) 02:32:20 145.880/145.840
NANOSAT C BR1 31 Aug 02:27:12 02:30:42 24° 301° (WNW) 02:34:09 145.865
SO-50 31 Aug 02:31:59 02:36:22 35° 123° (ESE) 02:40:52 436.795
O/OREOS (USA 219) 31 Aug 02:34:22 02:36:54 14° 21° (NNE) 02:39:29 437.305
SWISSCUBE 31 Aug 02:38:28 02:43:09 56° 258° (WSW) 02:47:53 437.505
QB50P1 31 Aug 02:40:41 02:43:50 20° 304° (NW) 02:46:54 145.935-145.965
Gurwin Techsat 1B 31 Aug 02:42:59 02:46:29 18° 85° (E) 02:50:08 435.225
Cosmos 2504 31 Aug 02:44:55 02:52:22 33° 306° (NW) 02:59:53 435.465 / 435.565
TIGRISAT 31 Aug 02:51:09 02:52:36 11° 315° (NW) 02:53:53 435.000
PCSat 31 Aug 02:52:55 02:57:35 31° 115° (ESE) 03:02:19 145.827
RS-15 31 Aug 02:53:26 03:04:29 49° 243° (WSW) 03:15:47 29.354- 29.394
ITAMSAT 1 31 Aug 03:06:37 03:10:31 22° 88° (E) 03:14:32 435.822/435.867
ITUPSAT 1 31 Aug 03:17:12 03:21:29 31° 266° (W) 03:25:43 437.325
YUBILEINY 31 Aug 03:17:30 03:20:21 12° 348° (NNW) 03:23:04 435.215
AO-7 31 Aug 03:20:01 03:21:26 11° 71° (ENE) 03:23:27 29.400- 29.500
STARS 31 Aug 03:23:37 03:27:56 55° 68° (ENE) 03:32:20 437.465
Cosmos 2499 31 Aug 03:36:57 03:42:56 22° 73° (ENE) 03:49:21 435.465 / 435.565
KKS-1 31 Aug 03:39:42 03:44:10 75° 255° (WSW) 03:48:41 437.445
CUSAT 1 31 Aug 03:40:29 03:43:47 17° 319° (NW) 03:47:31 437.405
JAS-2 31 Aug 03:44:14 03:50:45 34° 88° (E) 03:56:43 435.910
MOZHAYETS 4 31 Aug 03:45:37 03:49:34 29° 61° (ENE) 03:53:35
Oscar 19 31 Aug 03:48:44 03:53:57 69° 291° (WNW) 03:59:07 437.125/150
BEESAT 31 Aug 03:52:35 03:55:48 17° 274° (W) 03:58:54 436.000
GONETS M04 31 Aug 03:58:25 04:07:02 73° 96° (E) 04:15:45
DANDE 31 Aug 04:02:06 04:04:42 14° 320° (NW) 04:07:32 436.750
SO-50 31 Aug 04:11:49 04:16:43 66° 325° (NW) 04:21:42 436.795
O/OREOS (USA 219) 31 Aug 04:13:19 04:17:38 38° 45° (NE) 04:21:58 437.305
Gurwin Techsat 1B 31 Aug 04:21:58 04:27:21 86° 104° (ESE) 04:32:41 435.225
PCSat 31 Aug 04:35:15 04:40:41 72° 317° (NW) 04:46:09 145.827
HORYU 2 31 Aug 04:35:25 04:38:33 19° 88° (E) 04:41:47 437.375
Cosmos 2504 31 Aug 04:44:07 04:48:05 13° 335° (NNW) 04:51:51 435.465 / 435.565
ITAMSAT 1 31 Aug 04:45:28 04:50:41 78° 288° (WNW) 04:55:52 435.822/435.867
STARS 31 Aug 05:01:01 05:04:42 25° 268° (W) 05:08:22 437.465
STRAND 1 31 Aug 05:07:33 05:09:34 13° 43° (NE) 05:11:44 437.568
RS-15 31 Aug 05:08:22 05:14:08 14° 267° (W) 05:19:09 29.354- 29.394
AO-7 31 Aug 05:09:10 05:17:01 44° 97° (E) 05:24:53 29.400- 29.500
YUBILEINY 31 Aug 05:18:30 05:22:26 13° 22° (NNE) 05:26:34 435.215
KKS-1 31 Aug 05:19:35 05:21:40 13° 277° (W) 05:23:37 437.445
MOZHAYETS 4 31 Aug 05:22:06 05:26:38 52° 261° (W) 05:31:09
Cosmos 2499 31 Aug 05:26:10 05:34:43 72° 96° (E) 05:43:35 435.465 / 435.565
Oscar 19 31 Aug 05:29:04 05:32:32 18° 311° (NW) 05:35:52 437.125/150
JAS-2 31 Aug 05:29:04 05:36:30 71° 293° (WNW) 05:43:04 435.910
CUBESAT XI-V 31 Aug 05:36:39 05:40:47 34° 63° (ENE) 05:44:58 437.345
O/OREOS (USA 219) 31 Aug 05:52:46 05:57:12 46° 247° (WSW) 06:01:35 437.305
SO-50 31 Aug 05:53:32 05:58:01 32° 348° (NNW) 06:02:31 436.795
GONETS M04 31 Aug 05:56:40 06:04:43 39° 302° (WNW) 06:12:44
Gurwin Techsat 1B 31 Aug 06:02:38 06:06:49 24° 307° (NW) 06:10:55 435.225
HORYU 2 31 Aug 06:11:15 06:15:45 75° 289° (WNW) 06:20:12 437.375
Cubesat XI-IV 31 Aug 06:19:30 06:21:28 12° 80° (E) 06:23:42 437.490
